Location: Haliburton Scout Reserve
(45.0900°N, 78.3200°W)
Time: 02:42:46
(UTC-04:00)

ESTCUBE 1 - Pass Details

Date: 21 May 2022
Orbit: 644 x 659 km, 97.9° (Epoch: 27 June)

Event Time Altitude Azimuth Distance (km) Brightness Sun altitude
Exits shadow 00:32:37 17° 255° (WSW) 1,628 ? -24.2°
Maximum altitude 00:33:24 18° 268° (W) 1,594 ? -24.2°
Drops below altitude 10° 00:36:30 10° 312° (NW) 2,069 ? -24.3°
Sets 00:39:22 0° 331° (NNW) 2,983 ? -24.4°
